www.pogodaiklimat.ru

Погода и климат >> Архив погоды >> Беларусь >> Березинский Заповедник


ПОГОДА в Березинском Заповеднике

  • Прогноз погоды в Березинском Заповеднике
  • Монитор погоды в Березинском Заповеднике
  • Климат города

АРХИВ ПОГОДЫ в Березинском Заповеднике

Время (UTC), дата Ветер
(напр.,м/с)
 
Видим.   Явления Облачность Т
(С)
Тd
(С)
f
(%)
Тe
(С)
Тes
(С)
Комфортность P
(гПа)
Po
(гПа)
Тmin
(С)
Tmax
(С)
R
(мм)
R24
(мм)
S
(см)
06 9.12 Ю 3 1200 м дымка {туман} [диам. гололёда 1 мм] 10/10 120 м
[St]
-0.3 -0.6 98 -5 -5 1002.3 980.7 -1.9 0.4 4
09 9.12 Ю 2 2900 м дымка [диам. гололёда 1 мм] 10/10 90 м
[St]
0.0 -0.6 96 -4 -4 1001.7 980.1
12 9.12 Ю 3 12 км 9/9 900 м
[Sc]
+0.8 +0.3 96 -4 -4 1000.0 978.6
15 9.12 Ю 3 6000 м дымка 10/10 120 м
[St]
+0.4 -0.2 96 -4 -4 999.4 977.9
18 9.12 ЮВ 2 8000 м дымка 10/10 150 м
[St]
+0.1 -0.5 96 -4 -4 998.8 977.3 +1.0
21 9.12 ЮВ 3 6000 м дымка 10/10 120 м
[St]
+0.3 0.0 98 -5 -5 998.2 976.7
00 10.12 ЮВ 2 6000 м слабый снег 10/10 150 м
[Frnb Ns]
+0.4 +0.1 98 -3 -3 997.2 975.8
03 10.12 Ю 2 6000 м в посл. час снег 10/10 150 м
[St]
+0.7 +0.4 98 -3 -3 996.4 975.1
06 10.12 Ю 2 900 м туман {морось} ?/? +1.6 +1.3 98 -2 -2 997.2 975.9 0.0 1 5
09 10.12 Ю 2 2600 м слабая морось {туман} 10/10 150 м
[St]
+1.9 +1.6 98 -2 -2 998.5 977.2
12 10.12 ЮЗ 2 900 м туман {морось} ?/? +2.2 +1.9 98 -1 -1 999.7 978.3
15 10.12 Ю 1 3800 м дождь {туман} 10/10 120 м
[Frnb Ns]
+1.9 +1.6 98 -0 -0 1001.2 979.8
21 10.12 ЮВ 1 800 м туман {дождь, морось} ?/? +1.5 +1.5 100 -1 -1 1003.5 982.1
00 11.12 ЮВ 1 600 м туман {дождь, морось} ?/? +1.3 +1.3 100 -1 -1 1004.6 983.1
03 11.12 штиль 0 300 м туман ?/? +1.1 +1.1 100 -0 -0 1005.5 984.0
06 11.12 штиль 0 300 м туман ?/? +0.5 +0.5 100 -1 -1 1007.0 985.5 +0.5 0.5 1
09 11.12 штиль 0 800 м туман {морось} ?/? +1.1 +1.1 100 -0 -0 1009.1 987.5
12 11.12 штиль 0 300 м туман {морось} ?/? +1.3 +1.3 100 -0 -0 1010.4 988.8
15 11.12 СЗ 1 300 м туман ?/? +1.3 +1.3 100 -1 -1 1012.2 990.6
18 11.12 штиль 0 300 м туман ?/? +0.8 +0.5 98 -1 -1 1014.2 992.5 +1.6 0.1
21 11.12 штиль 0 1300 м в посл. час туман {дождь} 10/10 120 м
[St]
+0.8 +0.5 98 -1 -1 1015.4 993.7
00 12.12 штиль 0 1900 м дымка {дождь, туман} 10/10 120 м
[St]
+0.5 +0.2 98 -1 -1 1016.4 994.7
03 12.12 СВ 2 1200 м дымка 10/10 120 м
[St]
+0.4 +0.1 98 -3 -3 1017.3 995.5
06 12.12 СВ 2 1900 м в посл. час туман 10/10 120 м
[St]
+0.5 -0.1 96 -3 -3 1018.7 997.0 +0.3 0.3 <0.5
09 12.12 С 2 20 км 10/10 400 м
[St]
+0.8 +0.3 96 -3 -3 1020.2 998.3
12 12.12 С 3 11 км 10/10 120 м
[St]
+0.7 +0.4 98 -4 -4 1020.1 998.2
15 12.12 СВ 3 11 км 10/10 90 м
[St]
+0.9 +0.6 98 -4 -4 1020.5 998.6
18 12.12 СВ 4 35 км 10/10 180 м
[St]
+0.6 +0.1 96 -5 -5 1021.1 999.2 +1.1
21 12.12 С 2 35 км {снег} 9/9 660 м
[Sc]
+0.1 -1.6 88 -4 -4 1021.5 999.5
00 13.12 СВ 5 35 км {снег} 9/9 570 м
[Sc]
+0.1 -2.2 84 -6 -6 1021.4 999.4
03 13.12 С 4
{11}
35 км 9/9 600 м
[Sc]
-0.3 -2.7 84 -6 -6 1021.2 999.2
06 13.12 СВ 3
{11}
19 км 9/9 570 м
[Sc]
-0.6 -4.0 78 -5 -5 1021.4 999.4 -0.7 0.1 <0.5
09 13.12 С 4 35 км 9/9 630 м
[Sc]
-0.5 -3.9 78 -6 -6 1021.8 999.8
12 13.12 СВ 4 22 км 9/9 540 м
[Sc]
-0.6 -3.0 84 -6 -6 1021.6 999.6
18 13.12 СВ 4 8000 м слабый снег 10/10 400 м
[Frnb Ns]
-0.6 -2.7 86 -6 -6 1022.8 1000.8 -0.2 0.5
00 14.12 СВ 3 12 км {снег} 10/10 300 м
[St]
-0.9 -2.5 89 -6 -6 1024.6 1002.5
03 14.12 СВ 3 16 км 10/10 270 м
[St]
-0.9 -2.5 89 -6 -6 1025.3 1003.2
06 14.12 СВ 3 26 км 10/10 240 м
[St]
-0.8 -2.1 91 -6 -6 1026.4 1004.3 -1.0 0.3 2
09 14.12 СВ 3 21 км 10/10 240 м
[St]
-0.6 -1.8 92 -6 -6 1027.7 1005.6
12 14.12 СВ 3 21 км в посл. час снег 10/10 300 м
[St]
-0.7 -2.6 87 -6 -6 1028.2 1006.1
15 14.12 СВ 2 22 км {снег} 9/9 720 м
[Sc]
-0.9 -3.1 85 -5 -5 1029.2 1007.1
18 14.12 СВ 3 22 км {снег} 9/9 540 м
[Sc]
-1.1 -3.4 84 -6 -6 1030.2 1008.0 -0.5 0.0
21 14.12 СВ 1 8000 м слабый снег 10/10 270 м
[Frnb Ns]
-1.5 -2.6 92 -4 -4 1031.2 1008.9
00 15.12 С 2 22 км в посл. час снег 10/10 300 м
[St]
-1.6 -2.4 94 -6 -6 1031.7 1009.3
03 15.12 СВ 2 19 км {снег} 10/10 240 м
[St]
-1.6 -2.4 94 -6 -6 1032.1 1009.7

 

Местоположение метеостанции Березинский Заповедник (Минская область, Беларусь): широта 54.73 долгота 28.35 высота над уровнем моря 150 м.

В архиве по умолчанию представлена погода в Березинском Заповеднике за последнюю неделю. Архивные данные за месяц целиком и за предыдущие месяцы, начиная с января 2011 года, Вы можете получить, выбрав интересующий диапазон дат из раскрывающегося списка и нажав кнопку "Ввод!".


*Определитесь, кто Вы:
робот инопланетянин человек

Внимание! Время в таблицах - всемирное. Для получения местного времени необходимо прибавить поправку, которая в Березинском Заповеднике равна 3 ч.

Смотрите также архив погоды в соседних городах и на ближайших метеорологических станциях:

Погода в Лепеле (Витебская область, Беларусь) (27 км)
Погода в Докшицах (Витебская область, Беларусь) (42 км)
Погода в Борисове (Минская область, Беларусь) (52 км)
Погода в Сенно (Витебская область, Беларусь) (87 км)
Погода в Полоцке (Витебская область, Беларусь) (87 км)
Погода в Шарковщине (Витебская область, Беларусь) (91 км)
Погода в Вилейке (Минская область, Беларусь) (91 км)
Погода в Минске (город Минск, Беларусь) (100 км)
Погода в Нарочи (Минская область, Беларусь) (108 км)
Погода в Березино (Минская область, Беларусь) (108 км)

Пояснения к столбцам:

Ветер - указаны скорость ветра в м/с - средняя за 10 мин, порывы в срок и между сроками (в фигурных скобках) и направление, откуда дует ветер: С - северный, СВ - северо-восточный, В - восточный, ЮВ - юго-восточный, Ю - южный, ЮЗ - юго-западный, З - западный, СЗ - северо-западный.
Видимость - горизонтальная дальность видимости в метрах или километрах. При видимости от 1 до 10 км при отсутствии осадков обычно наблюдается дымка, при ухудшении видимости до 1 км и менее - туман. В сухую погоду видимость может ухудшаться дымом, пылью или мглою.
Явления - указаны атмосферные явления, наблюдавшиеся в срок или в последний час перед сроком; фигурными скобками обозначены явления, наблюдавшиеся между сроками (за 1-3 часа до срока); квадратными скобками обозначены град или гололедные отложения с указанием их диаметра в мм.
Облачность - указаны через наклонную черту общая и нижняя облачность в баллах и высота нижней границы облаков в метрах; квадратными скобками обозначены формы облаков: Ci - перистые, Cs - перисто-слоистые, Cc - перисто-кучевые, Ac - высококучевые, As - высокослоистые, Sc - слоисто-кучевые, Ns - слоисто-дождевые, Cu - кучевые, Cb - кучево-дождевые. Подробнее классификацию облаков см. в Атласе облаков (PDF).
T - Температура воздуха - температура, измеренная на высоте 2 м над землей.
Td - Температура точки росы - температура, при понижении до которой содержащийся в воздухе водяной пар достигнет насыщения.
f - Относительная влажность воздуха - влажноcть воздуха, измеренная на высоте 2 м над землей.
Te - Эффективная температура - температура, которую ощущает одетый по сезону человек в тени. Характеристика душности погоды. При расчете учитывается влияние влажности воздуха и скорости ветра на теплоощущения человека.
Tes - Эффективная температура на солнце - температура, которую ощущает человек, с поправкой на солнечный нагрев. Характеристика знойности погоды. Зависит от высоты солнца над горизонтом, облачности и скорости ветра. Ночью, в пасмурную погоду, а также при ветре 12 м/с и более поправка равна нулю.
P - Атмосферное давление - приведенное к уровню моря атмосферное давление.
Po - Атмосферное давление - измеренное на уровне метеостанции атмосферное давление.
Tmin - Минимальная температура - минимум температуры воздуха на высоте 2 м над землей.
Tmax - Максимальная температура - максимум температуры воздуха на высоте 2 м над землей.
R - Количество осадков - Количество выпавших осадков за период времени, мм. При наведении курсора мыши на число - период времени, за который выпало указанное количество осадков.
R24 - Количество осадков - Количество выпавших осадков за 24 часа, мм.
S - Снежный покров - Высота снежного покрова, см. При наведении курсора мыши на число - состояние снежного покрова и степень покрытия местности в баллах.